EHI
1 1 0 0 0 0 0 0 0 0 0 0 0 0 0 0 0 0 0 0 0 0 0 0 0 0 0 0 0 0 0 0 0 0 0 0 0 0 0 0 0 0 0
1 0 0 0 0 0 0 0 0 0 0 0 0 0 0 0 0 0 0 0 0 0 0 0 0 0 0 0 0 0 0 0 0 0 0 0 0 0 0 0 0 0 0
0 0 0 0 0 0 0 0 0 0 0 0 0 0 0 0 0 0 0 0 0 0 0 0 0 0 0 0 0 0 0 0 0 0 0 0 0 0 0 0 0 0 0
0 0 0 0 0 0 0 0 0 0 0 0 0 0 0 0 0 0 0 0 0 0 0 0 0 0 0 0 0 0 0 0 0 0 0 0 0 0 0 0 0 0 0
0 0 0 0 0 0 0 0 0 0 0 0 0 0 0 0 0 0 0 0 0 0 0 0 0 0 0 0 0 0 0 0 0 0 0 0 0 0 0 0 0 0 0
0 0 0 0 0 0 0 0 0 0 0 0 0 0 0 0 0 0 0 0 0 0 0 0 0 0 0 0 0 0 0 0 0 0 0 0 0 0 0 0 0 0 0
0 0 0 0 0 0 0 0 0 0 0 0 0 0 0 0 0 0 0 0 0 0 0 0 0 0 0 0 0 0 0 0 0 0 0 0 0 0 0 0 0 0 0
0 0 0 0 0 0 0 0 0 0 0 0 0 0 0 0 0 0 0 0 0 0 0 0 0 0 0 0 0 0 0 0 0 0 0 0 0 0 0 0 0 0 0
0 0 0 0 0 0 0 0 0 0 0 0 0 0 0 0 0 0 0 0 0 0 0 0 0 0 0 0 0 0 0 0 0 0 0 0 0 0 0 0 0 0 0
0 0 0 0 0 0 0 0 0 0 0 0 0 0 0 0 0 0 0 0 0 0 0 0 0 0 0 0 0 0 0 0 0 0 0 0 0 0 0 0 0 0 0
0 0 0 0 0 0 0 0 0 0 0 0 0 0 0 0 0 0 0 0 0 0 0 0 0 0 0 0 0 0 0 0 0 0 0 0 0 0 0 0 0 0 0
0 0 0 0 0 0 0 0 0 0 0 0 0 0 0 0 0 0 0 0 0 0 0 0 0 0 0 0 0 0 0 0 0 0 0 0 0 0 0 0 0 0 0
0 0 0 0 0 0 0 0 0 0 0 0 0 0 0 0 0 0 0 0 0 0 0 0 0 0 0 0 0 0 0 0 0 0 0 0 0 0 0 0 0 0 0
0 0 0 0 0 0 0 0 0 0 0 0 0 0 0 0 0 0 0 0 0 0 0 0 0 0 0 0 0 0 0 0 0 0 0 0 0 0 0 0 0 0 0
0 0 0 0 0 0 0 0 0 0 0 0 0 0 0 0 0 0 0 0 0 0 0 0 0 0 0 0 0 0 0 0 0 0 0 0 0 0 0 0 0 0 0
0 0 0 0 0 0 0 0 0 0 0 0 0 0 0 0 0 0 0 0 0 0 0 0 0 0 0 0 0 0 0 0 0 0 0 0 0 0 0 0 0 0 0
0 0 0 0 0 0 0 0 0 0 0 0 0 0 0 0 0 0 0 0 0 0 0 0 0 0 0 0 0 0 0 0 0 0 0 0 0 0 0 0 0 0 0
0 0 0 0 0 0 0 0 0 0 0 0 0 0 0 0 0 0 0 0 0 0 0 0 0 0 0 0 0 0 0 0 0 0 0 0 0 0 0 0 0 0 0
0 0 0 0 0 0 0 0 0 0 0 0 0 0 0 0 0 0 0 0 0 0 0 0 0 0 0 0 0 0 0 0 0 0 0 0 0 0 0 0 0 0 0
0 0 0 0 0 0 0 0 0 0 0 0 0 0 0 0 0 0 0 0 0 0 0 0 0 0 0 0 0 0 0 0 0 0 0 0 0 0 0 0 0 0 0
0 0 0 0 0 0 0 0 0 0 0 0 0 0 0 0 0 0 0 0 0 0 0 0 0 0 0 0 0 0 0 0 0 0 0 0 0 0 0 0 0 0 0
0 0 0 0 0 0 0 0 0 0 0 0 0 0 0 0 0 0 0 0 0 0 0 0 0 0 0 0 0 0 0 0 0 0 0 0 0 0 0 0 0 0 0
0 0 0 0 0 0 0 0 0 0 0 0 0 0 0 0 0 0 0 0 0 0 0 0 0 0 0 0 0 0 0 0 0 0 0 0 0 0 0 0 0 0 0
0 0 0 0 0 0 0 0 0 0 0 0 0 0 0 0 0 0 0 0 0 0 0 0 0 0 0 0 0 0 0 0 0 0 0 0 0 0 0 0 0 0 0
0 0 0 0 0 0 0 0 0 0 0 0 0 0 0 0 0 0 0 0 0 0 0 0 0 0 0 0 0 0 0 0 0 0 0 0 0 0 0 0 0 0 0
0 0 0 0 0 0 0 0 0 0 0 0 0 0 0 0 0 0 0 0 0 0 0 0 0 0 0 0 0 0 0 0 0 0 0 0 0 0 0 0 0 0 0
Wind_Speed
4 5 5 5 5 5 5 4 3 3 3 3 3 3 4 4 4 4 3 3 3 3 3 3 3 3 3 3 3 3 3 3 5 5 3 3 5 5 4 3 3 3 3
4 5 5 5 5 5 4 4 4 4 3 3 4 4 5 5 5 5 4 4 3 3 3 3 4 4 4 4 3 4 4 4 4 6 4 3 5 5 5 5 4 4 3
4 5 5 5 5 5 4 4 4 4 4 4 4 5 5 5 5 5 4 4 4 3 3 3 3 4 4 4 5 4 4 5 4 4 4 3 3 3 4 4 4 3 5
4 5 4 4 4 4 4 4 4 4 4 4 4 5 5 5 5 5 5 5 5 4 4 3 3 3 4 5 5 5 5 6 5 4 4 2 2 2 4 4 4 3 4
4 4 3 3 4 4 4 4 4 4 4 4 5 4 4 4 4 5 5 5 5 5 5 4 3 6 7 5 4 5 5 4 5 4 3 2 1 1 3 3 4 3 3
4 4 4 4 4 4 4 4 4 4 4 5 5 5 5 4 6 7 5 3 4 4 4 5 4 6 9 9 8 6 5 4 5 4 3 3 3 2 2 3 4 4 3
3 4 4 5 4 4 4 5 4 4 4 4 4 4 4 5 7 8 7 3 3 3 4 4 5 6 8 6 8 8 7 8 6 3 4 4 4 3 2 3 4 4 4
3 3 4 5 5 4 5 4 3 3 3 3 3 4 4 5 9 8 6 4 4 4 4 4 4 6 8 7 6 7 7 6 6 4 2 4 4 5 3 3 3 3 2
3 3 3 4 4 4 4 3 2 3 3 3 3 4 4 5 9 9 7 3 3 3 3 4 5 5 10 10 7 7 8 7 7 8 6 6 7 8 5 2 1 2 2
3 4 3 4 4 4 4 3 2 3 3 3 3 3 4 4 7 9 7 3 3 2 3 4 7 8 10 10 6 5 7 7 8 8 7 7 6 7 8 4 1 1 1
4 4 4 4 4 4 3 2 3 3 3 3 3 3 3 4 6 10 9 4 3 3 4 4 5 11 11 11 7 4 5 5 5 5 5 6 5 5 5 4 3 1 1
5 5 4 3 3 3 4 3 3 4 4 3 3 2 2 3 5 7 9 8 5 4 3 4 5 10 11 11 8 9 11 8 5 5 6 6 6 6 5 5 4 3 1
5 5 4 4 3 3 4 3 3 3 3 2 2 1 1 2 3 6 8 9 9 4 3 7 9 10 9 7 10 12 9 6 6 5 5 5 5 6 5 5 5 4 4
5 4 4 4 3 3 3 3 3 3 3 3 2 1 0 1 2 3 3 4 6 6 5 7 8 8 6 6 6 6 5 5 4 4 4 4 5 6 6 5 4 4 3
5 4 4 4 4 3 2 2 3 3 4 4 3 3 3 2 2 1 1 2 3 4 4 3 4 4 5 5 4 4 5 5 5 5 4 5 6 6 5 5 4 3 3
5 4 4 3 3 3 3 1 2 1 2 4 5 5 3 4 3 2 2 4 6 6 3 3 3 3 3 3 3 4 4 4 4 4 4 5 5 5 5 5 4 4 4
6 5 4 4 4 4 4 4 2 1 1 2 3 5 5 4 4 3 4 6 6 3 2 1 1 2 2 2 2 2 2 3 3 3 4 4 4 4 4 5 6 5 4
6 7 6 5 5 5 5 5 4 4 3 3 5 8 8 8 6 4 4 4 3 2 0 1 1 0 0 1 1 2 2 3 3 3 4 4 4 4 5 5 6 6 5
6 4 5 5 5 5 5 5 5 5 5 4 3 4 9 8 6 6 2 1 1 1 1 1 1 1 1 1 1 2 2 3 3 3 3 4 4 4 5 5 5 7 6
6 9 8 5 5 5 5 5 6 6 6 5 6 6 4 3 3 3 3 4 3 3 2 2 1 2 2 2 2 2 3 3 4 4 4 4 4 4 4 5 5 5 5
6 6 9 5 5 5 5 5 6 6 6 7 7 8 10 6 6 5 4 5 5 5 4 4 3 3 3 3 3 3 4 3 3 3 3 3 3 3 3 3 3 4 4
6 6 5 6 5 5 5 5 5 6 7 8 6 6 13 6 5 5 5 5 6 5 5 5 4 4 4 4 4 4 3 3 2 2 3 3 3 3 3 3 3 3 3
8 7 6 6 6 7 6 5 5 5 6 6 6 5 6 7 6 6 6 6 6 5 5 5 5 4 4 4 4 5 5 4 2 2 2 3 3 3 3 3 3 3 3
9 9 8 6 6 6 6 6 6 6 6 6 7 7 7 7 7 7 7 6 6 5 5 5 6 7 8 5 4 4 4 4 4 3 3 3 3 3 3 3 3 4 3
10 9 9 8 7 7 7 7 7 7 6 6 7 7 7 7 7 7 7 6 7 7 7 7 5 7 9 9 7 6 7 8 5 4 3 2 2 3 2 3 3 3 3
11 11 9 8 8 7 7 8 8 8 7 7 7 7 8 8 7 7 7 7 7 6 7 6 7 8 9 8 10 11 9 8 6 4 3 2 1 1 2 2 3 3 2
Wind_Direction
98 105 105 104 103 101 100 101 96 78 71 64 50 43 42 36 29 25 4 6 6 356 357 3 355 348 348 335 324 312 290 265 267 271 248 234 200 193 174 164 145 142 136
105 108 109 112 109 104 102 98 91 79 68 68 64 59 51 45 37 30 12 6 8 6 358 5 2 1 354 337 330 319 307 285 267 277 267 228 212 197 179 175 169 174 165
110 109 107 110 114 113 106 93 82 74 61 59 66 67 60 49 35 19 14 12 17 13 12 20 6 5 349 334 329 327 317 310 287 274 272 238 216 181 169 182 183 175 185
102 109 114 119 123 120 107 93 81 77 69 60 73 84 77 55 34 19 17 17 12 7 11 19 10 359 335 324 322 323 321 318 311 298 281 262 226 183 169 177 179 187 195
97 99 108 111 108 103 96 87 79 78 78 78 84 78 64 54 29 22 15 19 17 12 11 10 11 5 345 329 316 314 322 322 325 322 316 320 309 181 198 188 186 170 193
101 103 103 99 94 90 88 83 79 75 76 78 82 79 57 38 22 33 33 29 24 26 16 4 357 7 351 350 351 353 351 340 334 336 333 335 326 288 238 194 173 168 198
99 104 106 103 93 87 88 82 79 81 85 86 88 87 69 28 26 26 33 57 44 35 28 18 13 6 1 354 354 1 2 2 7 346 345 336 322 310 286 217 197 185 183
109 108 107 107 103 96 92 89 83 82 89 94 92 91 74 33 25 25 35 63 62 48 37 28 22 7 6 4 4 2 351 345 340 347 319 304 305 302 283 251 208 156 106
132 131 125 118 117 115 111 107 99 90 84 85 92 91 78 32 25 30 39 57 59 46 33 29 22 11 2 15 19 3 354 346 343 339 323 319 331 349 359 29 85 134 143
160 144 131 126 128 135 138 130 113 107 105 95 84 80 79 53 32 37 41 50 50 21 3 7 15 12 8 18 21 8 356 334 337 347 352 351 352 356 10 24 37 104 118
144 129 122 125 132 139 136 128 124 112 102 93 86 68 63 50 36 38 42 50 43 29 13 357 352 360 11 14 17 7 332 323 339 359 3 358 356 356 353 2 21 74 108
129 123 121 122 128 123 123 114 115 118 109 100 87 60 34 27 31 33 39 44 47 50 15 347 342 357 10 16 18 11 12 18 18 19 17 7 359 349 337 341 2 19 29
128 130 129 118 110 119 127 124 111 114 119 119 111 87 11 3 10 27 37 40 40 39 359 353 355 359 5 11 15 18 22 24 25 24 10 356 344 341 344 343 349 3 9
143 148 145 134 126 116 114 125 130 140 141 144 150 160 299 347 352 4 14 21 21 16 356 348 355 4 11 8 7 13 18 24 29 19 356 347 354 359 358 351 347 348 357
156 160 157 153 149 137 123 132 155 176 178 169 180 178 176 225 257 244 43 19 8 358 343 353 7 6 8 5 2 6 13 18 17 5 7 7 3 0 357 351 356 2 4
162 168 167 162 158 152 143 108 45 159 174 175 179 179 206 222 231 260 343 353 350 355 20 4 348 351 358 0 2 3 10 12 2 2 11 12 6 3 358 358 4 11 14
173 176 174 170 169 170 169 171 189 280 294 247 215 207 218 232 243 274 325 339 339 358 34 345 332 330 343 359 6 6 0 350 355 13 18 12 4 5 7 7 9 4 4
180 185 181 184 185 187 191 192 188 189 213 248 245 233 236 243 253 273 317 352 357 23 1 296 302 310 16 31 18 8 3 4 16 26 28 21 17 18 20 16 17 10 358
182 187 190 190 194 197 200 199 201 203 207 215 223 238 235 241 259 263 241 199 238 287 286 258 208 147 107 83 54 40 42 36 34 35 33 25 22 31 27 17 15 13 15
188 197 188 191 197 201 204 206 209 208 209 209 213 219 201 182 224 237 208 202 205 218 211 185 162 139 124 103 85 74 68 56 45 43 33 28 22 28 30 25 17 13 15
191 202 201 192 197 201 200 203 207 205 205 209 217 212 187 189 210 216 209 202 197 197 189 175 161 147 133 119 106 98 91 73 60 53 39 23 18 18 10 19 17 12 15
191 198 200 202 207 210 209 205 201 201 201 203 214 210 196 192 198 203 204 197 193 187 176 162 159 160 156 147 138 128 115 104 85 65 44 23 13 5 3 9 16 16 15
192 196 202 211 212 216 216 209 201 198 196 196 194 191 188 198 200 197 196 189 180 177 170 158 153 161 166 162 157 150 148 155 152 124 80 39 18 6 7 10 12 15 13
197 198 199 206 210 211 212 214 210 207 201 196 193 194 196 199 198 195 190 183 178 177 172 166 166 172 173 169 164 159 159 161 151 125 105 80 40 15 12 13 7 6 9
200 202 203 204 207 210 214 217 216 215 211 203 197 197 197 196 195 191 187 181 178 181 183 177 174 176 177 175 173 170 168 164 157 146 123 103 62 30 15 5 358 354 2
202 204 206 206 206 208 210 214 216 215 215 211 203 198 195 194 193 188 181 176 177 183 185 182 184 183 181 180 180 173 171 172 165 153 135 115 79 18 359 342 337 340 344